Location: Marcé
(47.5801°N, 0.3280°W)
Time: 11:21:22
(UTC+01:00)

Vanguard 3 - Pass Details

Date: 04 December 2021
Orbit: 508 x 3260 km, 33.3° (Epoch: 17 January)

Event Time Altitude Azimuth Distance (km) Brightness Sun altitude
Exits shadow 05:22:15 21° 224° (SW) 5,297 10.9 -31.1°
Maximum altitude 05:35:24 45° 168° (SSE) 3,737 10.4 -28.9°
Drops below altitude 10° 05:49:36 10° 103° (ESE) 4,935 12.1 -26.5°
Sets 05:53:02 0° 97° (E) 5,617 12.8 -25.9°
